Weather in Khattuni

Russia / Chechen Republic     42°58′47″N   45°56′09″E
temp.,
°C
wind,
m/s
gust,
m/s
humid.,
%
clouds,
%
prec.,
mm/h
press.,
hPa
HPBL,
m
16 april, fri
fri1600:00+8s226490 0.0 101915
03:00+8s226743 0.0 101913
06:00+8s21694 0.0 102018
09:00+14nne22507 0.0 10191041
12:00+17nne434439 0.0 10181679
15:00+16ne434767 0.2 10171577
18:00+13ene116644 0.2 101837
21:00+10s22723 0.4 101922
17 april, sat
sat1700:00+10s22680 0.0 101923
03:00+10s33645 0.0 101833
06:00+10s336159 0.0 101748
09:00+17nnw214195 0.0 1016696
12:00+18nw4347100 0.0 10181159
15:00+17nw4455100 0.0 10181314
18:00+13wsw2566100 0.0 1020495
21:00+10nw2389100 0.1 1022451
18 april, sun
sun1800:00+9nw1295100 0.5 1022273
03:00+9n119590 0.6 1021139
06:00+9nne1197100 0.1 1021182
09:00+11nne1187100 0.1 1020324
12:00+15nne336672 0.0 1017908
15:00+16ne226736 0.9 1016810
18:00+13nw2282100 0.8 101674
21:00+10wsw2295100 1.6 101950
19 april, mon
mon1900:00+11s2287100 0.8 101837
03:00+11se1184100 0.8 101711
06:00+12sse1180100 0.0 101812
09:00+16ne226689 0.0 1017505
12:00+20nne445137 0.0 10161255
15:00+20ne3347100 0.1 10141215
18:00+16e116598 0.1 101423
21:00+14s2274100 0.1 101518
20 april, tue
tue2000:00+13sse2269100 0.0 101334
03:00+14s2361100 0.0 101138
06:00+16sse3455100 0.0 100957
09:00+22ese2342100 0.0 1007264
12:00+28se152798 0.0 10041293
15:00+25wnw2343100 0.0 1003517
18:00+19sw2263100 0.0 100429
21:00+15w5973100 0.1 1011692